User: anonymous   Login
Location: Kunchanapalle
(16.4623°N, 80.6176°E)
Time: 11:52:03
(UTC+00:00)
Language:

Aureole 2 Rocket - Orbit

View from above orbital plane
View from above orbital plane
View from above satellite
View from above satellite

Ground track
Ground track

The orbit data is extracted from the following two-line orbital elements,

1  7004U 73107B   20305.18854240  .00033745  20153-5  22605-3 0  9997
2  7004  73.9196 207.7382 0082991 120.6106 240.3336 15.70631161428480
Epoch (UTC): 31 October 2020 04:31:30
Eccentricity: 0.0082991
inclination: 73.9196°
perigee height: 301 km
apogee height: 413 km
right ascension of ascending node: 207.7382°
argument of perigee: 120.6106°
revolutions per day: 15.70631161
mean anomaly at epoch: 240.3336°
orbit number at epoch: 42848

The dashed part of the orbit path shows where the satellite is in the earth's shadow,  

DLR